Regional Weather Roundup
Issued by NWS

Home | Current Version | Previous Version | Graphics & Text | Print | Product List | Glossary On
Versions: 1 2 3 4 5 6 7 8 9 10 11 12 13 14 15 16 17 18 19 20 21 22 23 24 25 26 27 28 29 30 31 32 33 34 35 36 37 38 39 40 41 42 43 44 45 46 47 48 49 50
000
ASUS43 KTOP 241059
RWRKS

WEATHER ROUNDUP FOR KANSAS
NATIONAL WEATHER SERVICE GOODLAND KS
500 AM CST MON NOV 24 2014

NOTE:  "FAIR" INDICATES FEW OR NO CLOUDS BELOW 12,000 FEET WITH NO
SIGNIFICANT WEATHER AND/OR OBSTRUCTIONS TO VISIBILITY.

KSZ001>006-013>018-027>032-041>047-241200-
NORTHWEST KANSAS

CITY           SKY/WX    TMP DP  RH WIND       PRES   REMARKS
GOODLAND       CLEAR     29  13  51 W21       29.81F WCI  16
HAYS           CLEAR     32  12  43 W15       29.76S WCI  22
HILL CITY      CLEAR     32  17  54 W14       29.75S WCI  22
RUSSELL        CLEAR     31  20  63 W14       29.74R WCI  21
$$

KSZ061>065-074>080-084>089-241200-
SOUTHWEST KANSAS

CITY           SKY/WX    TMP DP  RH WIND       PRES   REMARKS
DODGE CITY     CLEAR     30  16  56 W15       29.85S WCI  19
ELKHART          N/A    N/A N/A N/A MISG        N/A
GARDEN CITY    CLEAR     29  17  61 W14       29.86S WCI  18
GREAT BEND     CLEAR     32  16  51 W17       29.78S WCI  21
LIBERAL        CLEAR     30  18  59 W12       29.92F WCI  21
$$

KSZ066>073-081>083-090>101-241200-
SOUTHEAST KANSAS

CITY           SKY/WX    TMP DP  RH WIND       PRES   REMARKS
CHANUTE        CLEAR     35  28  75 W8        29.71R
COFFEYVILLE    CLEAR     37  29  72 W7        29.76R
HUTCHINSON     CLEAR     35  20  54 W12       29.77R WCI  27
MEDICINE LODGE   N/A     33  19  56 W10       29.83S WCI  25
NEWTON         CLEAR     34  19  55 W13       29.76R WCI  25
PARSONS        CLEAR     36  29  75 W9        29.74R
WICHITA INTL   CLEAR     36  22  56 W15       29.76F WCI  27
WICHITA JABRA  CLEAR     34  23  64 W9        29.75S
WINFIELD       CLEAR     33  26  75 W8        29.79S
$$

KSZ007>012-019>026-033>040-048>060-102>105-241200-
NORTHEAST KANSAS

CITY           SKY/WX    TMP DP  RH WIND       PRES   REMARKS
CONCORDIA      MOCLDY    34  24  67 W10       29.68R WCI  26
EMPORIA        CLEAR     33  26  75 W12       29.68S WCI  24
LAWRENCE       CLEAR     33  23  66 NW18G35   29.64R WCI  22
MANHATTAN      CLOUDY    37  26  64 W9        29.68R
OLATHE IND     CLEAR     33  25  72 W16G24    29.62R WCI  23
OLATHE EXE     PTCLDY    34  25  69 W10       29.60R WCI  26
SALINA         MOCLDY    35  22  58 W14       29.72R WCI  26
TOPEKA BILLARD CLEAR     35  23  61 W10       29.66R WCI  27
TOPEKA FORBES  CLEAR     35  23  61 NW17      29.65R WCI  25
$$



USA.gov is the U.S. government's official web portal to all federal, state and local government web resources and services.